Regional Weather Roundup
Issued by NWS Grand Forks, ND

Home | Current Version | Previous Version | Graphics & Text | Print | Product List | Glossary On
Versions: 1 2 3 4 5 6 7 8 9 10 11 12 13 14 15 16 17 18 19 20 21 22 23 24 25 26 27 28 29 30 31 32 33 34 35 36 37 38 39 40 41 42 43 44 45 46 47 48 49 50
039
ASUS43 KFGF 261410
RWRFGF
PRAIRIE TO PINES  WEATHER ROUNDUP
NATIONAL WEATHER SERVICE EASTERN NORTH DAKOTA/GRAND FORKS ND
900 AM CDT SAT MAY 26 2018

 **SATELLITE DATA USED TO AUGMENT SKY COVER AT AUTOMATED STATIONS**
 *****  WEATHER ACROSS EASTERN NORTH DAKOTA  *****

CITY           SKY/WX    TMP DP  RH WIND       PRES   REMARKS
GRAND FORKS    FAIR      75  58  55 W13       29.66R
GRAND FRKS AFB FAIR      76  56  49 NW10      29.68R
GRAND FRKS NWS   N/A     74  57  54 W14       29.64R
DEVILS LAKE    FAIR      72  56  57 W14       29.73S
FARGO          FAIR      76  56  49 W6        29.69S
WAHPETON ARPT  FAIR      77  50  38 NW9       29.72R
$$

 ***** WEATHER ACROSS CENTRAL AND WESTERN NORTH DAKOTA  *****

CITY           SKY/WX    TMP DP  RH WIND       PRES   REMARKS
BISMARCK       FAIR      70  54  56 SW5       29.78S
MINOT          FAIR      74  55  51 SW5       29.74S
JAMESTOWN      FAIR      72  58  61 NW9       29.74R
MINOT AFB      FAIR      74  55  50 NW7       29.73S
GARRISON         N/A     70  51  51 CALM      29.77R
WILLISTON      FAIR      67  55  65 CALM      29.77S
DICKINSON      FAIR      74  55  51 SW5       29.80R
HETTINGER      FAIR      69  53  56 SW3       29.84S
$$

 *****  OTHER AIRPORT OBSERVATIONS IN OUR AREA  *****

CITY           SKY/WX    TMP DP  RH WIND       PRES   REMARKS
WALHALLA       FAIR      73  61  64 W12       29.67R
GRAFTON AIRPOR FAIR      75  59  57 NW10      29.68R
VALLEY CITY AR FAIR      73  55  53 NW8       29.75S
CANDO          FAIR      72  57  60 NW12      29.74S
CAVALIER APRT    N/A     73  59  60 W10       29.66R
GWINNER          N/A     77  55  47 W10G16    29.74R
SHEYENNE NWR     N/A     77  56  48 NW7       29.95S
ROLLA          FAIR      72  57  60 NW14      29.74R
 ***** THE ABOVE OBSERVATIONS ARE NON NWS ARE NOT QUALITY
       CONTROLLED AND MAY MIS-REPORT RAIN FOR SNOW...
$$

  *****  WEATHER ACROSS NORTHERN MINNESOTA  *****

CITY           SKY/WX    TMP DP  RH WIND       PRES   REMARKS
FLAG ISLAND    NOT AVBL
WARROAD        FAIR      68  63  83 W7        29.65S
ROSEAU         FAIR      72  63  73 W8        29.65S
HALLOCK        FAIR      73  57  56 NW14      29.64S
THF RVR FALLS  FAIR      72  58  61 W8        29.67S
BAUDETTE         N/A     68  60  75 MISG      29.64R
WASKISH        FAIR      70  57  64 CALM      29.66S
CROOKSTON      FAIR      70  57  64 NW9       29.68R
STEPHEN NDAWN    N/A     77  55  47 NW10        N/A
GREENBUSH NDAW   N/A     72  61  68 NW9         N/A
$$
  *****  WEATHER ACROSS CENTRAL AND WEST MINNESOTA  *****

CITY           SKY/WX    TMP DP  RH WIND       PRES   REMARKS
FOSSTON        FAIR      70  54  56 SW9       29.69R
BEMIDJI        FAIR      74  56  51 W8        29.67S
PARK RAPIDS    FAIR      77  58  51 W8        29.69S
ELBOW LAKE     FAIR      75  55  50 NW6       29.73S
WADENA         FAIR      73  57  56 W6        29.72R
DETROIT LAKES  FAIR      77  54  44 W3        29.73R
MOORHEAD       FAIR      75  52  43 NW6       29.70S
FERGUS FALLS   FAIR      73  55  53 NW3       29.68S
MORRIS MN      FAIR      79  55  44 NW6       29.72S
STAPLES        FAIR      75  55  50 W5        29.71R
$$
  *****  WEATHER ELSEWHERE ACROSS MINNESOTA  *****

CITY           SKY/WX    TMP DP  RH WIND       PRES   REMARKS
DULUTH         FAIR      77  61  57 W7        29.68R
INTRNTL FALLS  PTSUNNY   65  59  81 W5        29.64R
ELY            FAIR      70  57  64 SW3       29.67R
CLOQUET        FAIR      73  59  60 W3        29.69R
WHEATON        NOT AVBL
BRAINERD       FAIR      76  57  51 SW7       29.70R
HIBBING        FAIR      71  60  68 SW3       29.67R
ALEXANDRIA     FAIR      79  57  46 W5        29.74R
SAINT CLOUD    FAIR      74  59  59 W3        29.71R
MINNEAPOLIS    FAIR      76  63  64 SW6       29.72S
$$

  *****  WEATHER ACROSS SOUTH DAKOTA  *****

CITY           SKY/WX    TMP DP  RH WIND       PRES   REMARKS
SIOUX FALLS    FAIR      76  66  71 CALM      29.80R
BROOKINGS      FAIR      75  60  59 CALM      29.80R
WATERTOWN      FAIR      72  60  66 W6        29.78R
HURON          FAIR      75  59  57 CALM      29.79S
SISSETON         N/A     84  54  35 NW8       29.72S
ABERDEEN       FAIR      77  57  50 SW3       29.77S
MITCHELL       FAIR      75  63  66 CALM      29.81R
PIERRE         FAIR      70  62  76 W6        29.81R
MOBRIDGE       FAIR      69  57  65 S3        29.78S
RAPID CITY     FAIR      67  58  72 SE5       29.86S
$$

  *****  SOME WEATHER IN NEARBY STATES *****

CITY           SKY/WX    TMP DP  RH WIND       PRES   REMARKS
GLASGOW MT     FAIR      69  54  58 SE9       29.75R
GREAT FALLS MT FAIR      63  49  60 SW13      29.82R
CHEYENNE WY    FAIR      65  45  48 W7        30.01S
SCOTTSBLUFF NE FAIR      68  57  68 SE12      29.90S
OMAHA NE       FAIR      79  65  62 CALM      29.79S
DES MOINES IA  FAIR      76  68  76 SE3       29.77S
DAVENPORT IA   FAIR      73  61  65 SW3       29.81S
CHICAGO IL     PTSUNNY   75  60  59 W6        29.78R
EAU CLAIRE WI  FAIR      72  63  73 SW8       29.72F
LA CROSSE WI   FAIR      72  65  78 S7        29.75S
$$

  *****  SOME NATIONAL WEATHER *****

CITY           SKY/WX    TMP DP  RH WIND       PRES   REMARKS
LA GUARDIA NY  FAIR      83  65  54 W5        29.82S
RALEIGH NC     CLOUDY    73  71  93 S9        30.01S
ATLANTA GA     CLOUDY    71  68  90 S3        30.01R
NEW ORLEANS LA FAIR      82  72  71 N3        29.91R
OKLAHOMA CITY  FAIR      73  64  73 SW7       29.88R
ALBUQUERQUE NM CLOUDY    65  19  17 N5        30.08R
SALT LAKE CITY MOSUNNY   67  36  31 E8        29.86R
LOS ANGELES CA PTSUNNY   58  51  78 VRB3      30.02R
BOISE ID       FAIR      58  50  75 N10       29.88R
SEATTLE WA     PTSUNNY   52  44  74 SE7       30.13R
$$

*** WEATHER ACROSS MANITOBA...SASKATCHEWAN AND ONTARIO ***
                ***ONTARIO***

CITY           SKY/WX    TMP DP  RH WIND       PRES   REMARKS
GERALDTON      CLOUDY    43  41  93 E13G18    29.81R
THUNDER BAY    CLOUDY    59  57  94 E10       29.66F FOG
SIOUX LOOKOUT  LGT RAIN  61  61 100 E7        29.64S
TORONTO        PTSUNNY   75  59  57 CALM      29.80S
BIG TROUT LK   MOSUNNY   43  34  70 SE14G22   29.86R
PICKLE LAKE    LGT RAIN  43  41  93 E16G22    29.76S FOG
DRYDEN         LGT RAIN  63  59  88 VRB2      29.64R
KENORA         MOSUNNY   63  59  88 VRB2      29.64R
$$
                *** MANITOBA***

CITY           SKY/WX    TMP DP  RH WIND       PRES   REMARKS
BRANDON        SUNNY     66  59  77 W13       29.70R
DAUPHIN        CLOUDY    59  57  94 W3        29.69R
ISLAND LAKE    LGT RAIN  46  45  93 E10G18    29.71S
PILOT MOUND      N/A     68  57  68 W9          N/A
THE PAS        FOG       50  50 100 CALM      29.69S VSB 1
THOMPSON       LGT RAIN  39  37  93 NE6       29.74F
WINNIPEG       MOSUNNY   66  61  82 N7        29.65R
LYNN LAKE      CLOUDY    46  39  76 SE8       29.71F
CHURCHILL      FLURRIES  32  28  86 S13       29.88F WCI  22
GILLAM         CLOUDY    36  32  87 SE8       29.83F
$$
                ***SASKATCHEWAN***

CITY           SKY/WX    TMP DP  RH WIND       PRES   REMARKS
ESTEVAN        SUNNY     68  55  64 NW3       29.76S
KINDERSLEY     MOSUNNY   70  48  46 SE17      29.64S
LLOYDMINSTER   LGT RAIN  57  55  94 E6        29.68F
PRINCE ALBERT  CLOUDY    59  55  88 CALM      29.73R
REGINA         MOSUNNY   63  57  82 VRB2      29.76R
YORKTON        CLOUDY    61  59  94 NW5       29.72S FOG
N. BATTLEFORD  MOSUNNY   61  57  88 SE13G18   29.66F
LA RONGE       CLOUDY    54  52  94 CALM      29.69F FOG
SASKATOON      MOSUNNY   63  57  82 E5        29.71F
SWIFT CURRENT  SUNNY     68  50  52 SE10      29.72S
$$
NOTE: THESE ARE AUTOMATED STATIONS WITH LIMITED QUALITY CONTROL
      "FAIR" INDICATES FEW OR NO CLOUDS BELOW 12,000 FEET WITH NO
      SIGNIFICANT WEATHER AND/OR OBSTRUCTIONS TO VISIBILITY.
      SKY/WX - SKY CONDITION AND SIGNIFICANT WEATHER.
      TMP - AIR TEMPERATURE.    DP   - DEWPOINT TEMPERATURE.
      RH  - RELATIVE HUMIDITY.  PRES - PRESSURE.
      HX  - HEAT INDEX.         WCI  - WIND CHILL INDEX.
$




USA.gov is the U.S. government's official web portal to all federal, state and local government web resources and services.